User: anonymous   Login
Location: Unspecified
(0.0000°N, 0.0000°E)
Time: 02:16:22
(UTC+00:00)
Language:

Kosmos-2310 - Orbit

View from above orbital plane
View from above orbital plane
View from above satellite
View from above satellite

Ground track
Ground track

The orbit data is extracted from the following two-line orbital elements,

1 23526U 95012A   18020.79194899  .00000019  00000-0  45595-5 0  9995
2 23526  82.9440 250.1683 0021984 170.7585 236.9636 13.71862418143294
Epoch (UTC): 20 January 2018 19:00:24
Eccentricity: 0.0021984
inclination: 82.9440°
perigee height: 976 km
apogee height: 1009 km
right ascension of ascending node: 250.1683°
argument of perigee: 170.7585°
revolutions per day: 13.71862418
mean anomaly at epoch: 236.9636°
orbit number at epoch: 14329

The dashed part of the orbit path shows where the satellite is in the earth's shadow,  

DLR